Lincoln County, Oregon, United States
Lat: 44.65N, Lon: 123.85W
Wx Zone: ORZ004
Local Info
Past Weather Observations for Yesterday

NOTE: This archive is for the closest National Weather Service station to Lincoln County. Information may differ from the station used for current weather conditions.

Click here for Long-term Archive

Time Weather Temperature Dewpoint Humidity Pressure Winds Precip Visibility
23:55
Overcast
57°F / 14°C 54°F / 12°C 88% 30.09 in
(1019 mb)
SSE 11.5 mph
(SSE 19 kph)
- 10SM
23:35
Overcast
59°F / 15°C 54°F / 12°C 82% 30.09 in
(1019 mb)
SW 5.8 mph
(SW 9 kph)
- 10SM
23:15
Overcast
57°F / 14°C 54°F / 12°C 88% 30.09 in
(1019 mb)
SSE 4.6 mph
(SSE 7 kph)
- 10SM
22:55
Overcast
57°F / 14°C 54°F / 12°C 88% 30.09 in
(1019 mb)
SE 4.6 mph
(SE 7 kph)
- 10SM
22:35
Overcast
57°F / 14°C 54°F / 12°C 88% 30.09 in
(1019 mb)
Calm - 10SM
22:15
Overcast
55°F / 13°C 54°F / 12°C 94% 30.09 in
(1019 mb)
Calm - 10SM
21:55
Overcast
55°F / 13°C 54°F / 12°C 94% 30.09 in
(1019 mb)
Calm - 10SM
21:35
Overcast
Drizzle
55°F / 13°C 54°F / 12°C 94% 30.09 in
(1019 mb)
S 3.5 mph
(S 6 kph)
- 10SM
21:15
Overcast
Light Rain
55°F / 13°C 54°F / 12°C 94% 30.09 in
(1019 mb)
Calm - 10SM
20:55
Overcast
Light Rain
55°F / 13°C 54°F / 12°C 94% 30.09 in
(1019 mb)
Calm - 10SM
20:35
Overcast
55°F / 13°C 54°F / 12°C 94% 30.09 in
(1019 mb)
S 5.8 mph
(S 9 kph)
- 10SM
20:15
Overcast
55°F / 13°C 54°F / 12°C 94% 30.09 in
(1019 mb)
SSE 5.8 mph
(SSE 9 kph)
- 10SM
19:55
Overcast
55°F / 13°C 54°F / 12°C 94% 30.09 in
(1019 mb)
SSE 6.9 mph
(SSE 11 kph)
- 10SM
19:35
Overcast
55°F / 13°C 54°F / 12°C 94% 30.09 in
(1019 mb)
SW 9.2 mph
(SW 15 kph)
- 10SM
19:15
Overcast
55°F / 13°C 54°F / 12°C 94% 30.09 in
(1019 mb)
SSE 6.9 mph
(SSE 11 kph)
- 10SM
18:55
Overcast
55°F / 13°C 54°F / 12°C 94% 30.09 in
(1019 mb)
SW 8.1 mph
(SW 13 kph)
- 7SM
18:35
Overcast
55°F / 13°C 54°F / 12°C 94% 30.06 in
(1018 mb)
SSW 4.6 mph
(SSW 7 kph)
- 10SM
18:15
Mostly Cloudy
55°F / 13°C 54°F / 12°C 94% 30.06 in
(1018 mb)
SW 3.5 mph
(SW 6 kph)
- 10SM
17:55
Mostly Cloudy
55°F / 13°C 54°F / 12°C 94% 30.06 in
(1018 mb)
SW 4.6 mph
(SW 7 kph)
- 10SM
17:35
Partly Cloudy
55°F / 13°C 54°F / 12°C 94% 30.06 in
(1018 mb)
Calm - 10SM
17:15
Mostly Cloudy
57°F / 14°C 54°F / 12°C 88% 30.06 in
(1018 mb)
SSW 4.6 mph
(SSW 7 kph)
- 10SM
16:55
Mostly Cloudy
55°F / 13°C 54°F / 12°C 94% 30.06 in
(1018 mb)
Calm - 10SM
16:35
Partly Cloudy
57°F / 14°C 54°F / 12°C 88% 30.09 in
(1019 mb)
SSW 4.6 mph
(SSW 7 kph)
- 10SM
16:15
Clear
61°F / 16°C 54°F / 12°C 77% 30.09 in
(1019 mb)
SW 5.8 mph
(SW 9 kph)
- 10SM
15:55
Clear
61°F / 16°C 54°F / 12°C 77% 30.09 in
(1019 mb)
SW 8.1 mph
(SW 13 kph)
- 10SM
15:35
Clear
59°F / 15°C 54°F / 12°C 82% 30.09 in
(1019 mb)
SW 5.8 mph
(SW 9 kph)
- 10SM
15:15
Clear
59°F / 15°C 54°F / 12°C 82% 30.09 in
(1019 mb)
SSW 6.9 mph
(SSW 11 kph)
- 10SM
14:55
Clear
59°F / 15°C 54°F / 12°C 82% 30.09 in
(1019 mb)
SW 5.8 mph
(SW 9 kph)
- 10SM
14:35
Clear
61°F / 16°C 54°F / 12°C 77% 30.09 in
(1019 mb)
SSW 5.8 mph
(SSW 9 kph)
- 10SM
14:15
Clear
63°F / 17°C 54°F / 12°C 73% 30.09 in
(1019 mb)
SSW 3.5 mph
(SSW 6 kph)
- 10SM
13:55
Clear
63°F / 17°C 54°F / 12°C 73% 30.09 in
(1019 mb)
SSW 5.8 mph
(SSW 9 kph)
- 10SM
13:35
Clear
61°F / 16°C 54°F / 12°C 77% 30.09 in
(1019 mb)
SSW 5.8 mph
(SSW 9 kph)
- 10SM
13:15
Partly Cloudy
59°F / 15°C 54°F / 12°C 82% 30.09 in
(1019 mb)
SW 3.5 mph
(SW 6 kph)
- 10SM
12:55
Overcast
Fog And Mist
57°F / 14°C 54°F / 12°C 88% 30.12 in
(1020 mb)
SSW 6.9 mph
(SSW 11 kph)
- 1 3/4SM
12:35
Mostly Cloudy
Fog And Mist
57°F / 14°C 54°F / 12°C 88% 30.12 in
(1020 mb)
SW 5.8 mph
(SW 9 kph)
- 1 3/4SM
12:15
Partly Cloudy
Fog And Mist
59°F / 15°C 54°F / 12°C 82% 30.12 in
(1020 mb)
SSW 6.9 mph
(SSW 11 kph)
- 5SM
11:55
Overcast
Fog And Mist
55°F / 13°C 52°F / 11°C 88% 30.09 in
(1019 mb)
SW 6.9 mph
(SW 11 kph)
- 2SM
11:35
Overcast
Fog
55°F / 13°C 54°F / 12°C 94% 30.09 in
(1019 mb)
SW 8.1 mph
(SW 13 kph)
- 1/4SM
11:15
Overcast
Fog And Mist
55°F / 13°C 54°F / 12°C 94% 30.09 in
(1019 mb)
SW 9.2 mph
(SW 15 kph)
- 1SM
10:55
Overcast
Fog And Mist
55°F / 13°C 54°F / 12°C 94% 30.09 in
(1019 mb)
SW 9.2 mph
(SW 15 kph)
- 1SM
10:35
Overcast
Fog
55°F / 13°C 54°F / 12°C 94% 30.09 in
(1019 mb)
SW 9.2 mph
(SW 15 kph)
- 1/2SM
10:15
Overcast
Fog And Mist
55°F / 13°C 54°F / 12°C 94% 30.09 in
(1019 mb)
SW 8.1 mph
(SW 13 kph)
- 4SM
09:55
Overcast
Fog
55°F / 13°C 54°F / 12°C 94% 30.09 in
(1019 mb)
SW 10.4 mph
(SW 17 kph)
- M1/4SM
09:35
Overcast
Fog
55°F / 13°C 54°F / 12°C 94% 30.09 in
(1019 mb)
SW 9.2 mph
(SW 15 kph)
- 1/2SM
09:15
Overcast
Fog And Mist
55°F / 13°C 52°F / 11°C 88% 30.09 in
(1019 mb)
SW 8.1 mph
(SW 13 kph)
- 3/4SM
08:55
Partly Cloudy
55°F / 13°C 54°F / 12°C 94% 30.09 in
(1019 mb)
SW 9.2 mph
(SW 15 kph)
- 10SM
08:35
Clear
59°F / 15°C 54°F / 12°C 82% 30.09 in
(1019 mb)
SW 9.2 mph
(SW 15 kph)
- 7SM
08:15
Clear
59°F / 15°C 54°F / 12°C 82% 30.09 in
(1019 mb)
SW 8.1 mph
(SW 13 kph)
- 7SM
07:55
Clear
59°F / 15°C 54°F / 12°C 82% 30.09 in
(1019 mb)
SW 6.9 mph
(SW 11 kph)
- 10SM
07:35
Partly Cloudy
57°F / 14°C 54°F / 12°C 88% 30.09 in
(1019 mb)
SW 5.8 mph
(SW 9 kph)
- 7SM
07:15
Overcast
Fog And Mist
55°F / 13°C 54°F / 12°C 94% 30.09 in
(1019 mb)
SW 8.1 mph
(SW 13 kph)
- 5SM
06:55
Overcast
Fog And Mist
55°F / 13°C 54°F / 12°C 94% 30.09 in
(1019 mb)
SW 5.8 mph
(SW 9 kph)
- 4SM
06:35
Overcast
Fog And Mist
55°F / 13°C 54°F / 12°C 94% 30.09 in
(1019 mb)
Calm - 5SM
06:15
Overcast
55°F / 13°C 54°F / 12°C 94% 30.06 in
(1018 mb)
Calm - 10SM
05:55
Overcast
55°F / 13°C 54°F / 12°C 94% 30.06 in
(1018 mb)
Calm - 10SM
05:35
Overcast
55°F / 13°C 54°F / 12°C 94% 30.06 in
(1018 mb)
Calm - 10SM
05:15
Overcast
55°F / 13°C 54°F / 12°C 94% 30.06 in
(1018 mb)
Calm - 10SM
04:55
Overcast
55°F / 13°C 54°F / 12°C 94% 30.06 in
(1018 mb)
Calm - 10SM
04:35
Overcast
55°F / 13°C 54°F / 12°C 94% 30.06 in
(1018 mb)
S 3.5 mph
(S 6 kph)
- 10SM
04:15
Overcast
55°F / 13°C 54°F / 12°C 94% 30.06 in
(1018 mb)
S 5.8 mph
(S 9 kph)
- 10SM
03:55
Overcast
55°F / 13°C 54°F / 12°C 94% 30.09 in
(1019 mb)
S 4.6 mph
(S 7 kph)
- 10SM
03:35
Overcast
55°F / 13°C 54°F / 12°C 94% 30.06 in
(1018 mb)
S 5.8 mph
(S 9 kph)
- 10SM
02:15
Overcast
55°F / 13°C 54°F / 12°C 94% 30.06 in
(1018 mb)
S 3.5 mph
(S 6 kph)
- 10SM
01:55
Overcast
55°F / 13°C 54°F / 12°C 94% 30.06 in
(1018 mb)
Calm - 10SM
01:35
Overcast
55°F / 13°C 54°F / 12°C 94% 30.06 in
(1018 mb)
Calm - 10SM
01:15
Mostly Cloudy
55°F / 13°C 54°F / 12°C 94% 30.09 in
(1019 mb)
Calm - 10SM
00:55
Mostly Cloudy
55°F / 13°C 54°F / 12°C 94% 30.09 in
(1019 mb)
S 3.5 mph
(S 6 kph)
- 10SM
00:35
Overcast
55°F / 13°C 54°F / 12°C 94% 30.09 in
(1019 mb)
S 3.5 mph
(S 6 kph)
- 10SM
00:15
Overcast
55°F / 13°C 54°F / 12°C 94% 30.09 in
(1019 mb)
S 3.5 mph
(S 6 kph)
- 10SM
Time Weather Temperature Dewpoint Humidity Pressure Winds Precip Visibility


Weather for websites

WeatherForYou.com, LLC is not responsible for any damages or problems caused by this service. Current weather conditions are obtained from the closest station including government and personal stations which may have varying degrees of accuracy. Weather forecasts are derived from the NOAA NDFD. Like all things, this site belongs to Jesus Christ... He just trusts me to maintain it. If you have any questions or comments email webmaster@weatherforyou.com

Copyright © 2014, WeatherForYou.com LLC. All rights reserved.